Starlink 5819

operational
NORAD ID: 55780 Int'l Des: 2023-028 Owner: SPXS Country: US Constellation: starlink
LEOCIRCULAR

About Starlink 5819

Description loading...

Live Position

Loading 3D Globe...

Upcoming Passes

Altitude History

Altitude vs Time

uPlot chart will show altitude changes over time

Two-Line Element Set

1 55780U 23028AR 25260.48980417 .00000442 00000-0 44885-4 0 9999
2 55780 69.9972 300.9825 0004322 274.7572 85.3093 14.98328427140596
Epoch: Sep 17, 2025 • Age: 23 hours

Current Status

Altitude 579.2 km
Velocity 7.57 km/s
Sub-Earth Point 40.54°N, 163.34°E
Launch Date Mar 3, 2023
Age 2.5 years
Type internet

Technical Details

Classification Payload
Mass 305.00 kg
Dry Mass 290.00 kg
Total Mass 305.00 kg
Length 0.20 m
Diameter 2.80 m
Span 9.00 m
Shape Box + pan
Manufacturer SPXS
Bus Type Starlink
Phase Status In Orbit
Owner/State SPXS/US

Large Constellations

Loading constellations...